Airfield :
LOGIN :

Register | Disclaimer

   EN    FR    IT 

 










Legend :    VFR   Marginal VFR   IFR   Intensive IFR   Very Intensive IFR
Visi :
Ceiling :
>= 8 km
>= 3000ft
5 to 8 km
1000 to 3000 ft
1500m to 5 km
500 to 1000 ft
800 to 1500m
200 to 500 ft
< 800m
< 200 ft
Symbols :   Thunderstorms  Fog  Heavy snow  Heavy precipitations  Wind > 20 kt
SIGMETs :     Misc.  Thunderstorms  Icing  Turbulence  Mountain Waves  Volcanic Ashes






- Airport Elevation : 1895 ft


LSMM - Meiringen

CURRENT METAR :
  • 271750Z AUTO 00000KT 6000NDV -RASN FEW003 BKN017 BKN033 01/00 Q1000 RMK

EXPIRED METARs :
  • 271720Z AUTO VRB03KT 6000NDV -SN FEW003 SCT026 01/00 Q0999 RMK
  • 271650Z AUTO VRB02KT 4200NDV -SHRASN BKN031 00/00 Q0999 RMK
  • 271620Z AUTO 28003KT 220V340 9999NDV -SHRA FEW029 SCT035 BKN053 00/M00 Q0999 RMK
  • 271550Z 28003KT 230V330 7000 -SN FEW016 SCT027 OVC039 00/M00 Q1000 RMK WHT

Expired Forecast.



MET'MAP, your aeronautical weather chart ! - Copyright ORBIFLY December 2007 - Disclaimer

ORBIFLY MET'MAP TEAM :

Programming & Development : Alexandra Zaïnal
Concept & original design : Baudouin d'Aumeries
Assistance for programming : Marc-Olivier Méhu
Technical & hardware support : Manuel Goepfert

Contact : metmap@orbifly.com




SOURCES & CREDITS :

   NOAA